Location: Krakow
(50.0830°N, 19.9170°E)
Time: 18:27:23
(UTC+01:00)

SR - Pass Details

Date: 17 February 2023
Orbit: 582 x 867 km, 66.7° (Epoch: 20 March)

Event Time Altitude Azimuth Distance (km) Brightness Sun altitude
Rises 10:39:18 0° 200° (SSW) 3,164 ? 25.8°
Reaches altitude 10° 10:41:48 10° 195° (SSW) 2,197 ? 25.9°
Maximum altitude 10:46:36 51° 120° (ESE) 851 ? 26.2°
Drops below altitude 10° 10:51:04 10° 45° (NE) 2,041 ? 26.4°
Sets 10:53:19 0° 40° (NE) 2,917 ? 26.5°
